Location: Lake Lucerne
(45.5315°N, 88.8489°W)
Time: 00:59:31
(UTC-05:00)

Envisat - Visible Passes

Search period start: 22 May 2018 00:00
Search period end: 01 June 2018 00:00
Orbit: 764 x 766 km, 98.2° (Epoch: 21 May)

Date Brightness Start Highest point End Pass type
(mag) Time Alt. Az. Time Alt. Az. Time Alt. Az.
22 May 5.7 21:39:46 10° WSW 21:42:33 15° W 21:45:20 10° NW visible
23 May 4.9 21:00:59 10° SSW 21:05:26 31° W 21:09:55 10° NNW visible
25 May 5.5 21:27:47 10° SW 21:31:15 18° W 21:34:45 10° NW visible
27 May 6.0 21:56:32 10° W 21:57:11 10° W 21:57:51 10° WNW visible
28 May 5.3 21:16:01 10° SW 21:19:59 23° W 21:23:58 10° NW visible
30 May 5.7 21:43:28 10° WSW 21:45:52 13° W 21:48:17 10° WNW visible
31 May 5.0 21:04:23 10° SSW 21:08:44 28° W 21:13:06 10° NW visible
